| time (UTC) | temp C | wind direction | speed KPH | gust KPH | rain 1hr cm | rain 24hr cm | rain mn cm | humidity % | barometer mb |
| 20260505122831 | 10 | 203 | 0.0 | 3.2 | 0.00 | 0.03 | 0.00 | 74 | 1017.8 |
| 20260505122341 | 10 | 205 | 0.0 | 3.2 | 0.00 | 0.03 | 0.00 | 75 | 1017.7 |
| 20260505121831 | 10 | 170 | 0.0 | 0.0 | 0.00 | 0.03 | 0.00 | 76 | 1017.9 |
| 20260505121322 | 10 | 170 | 0.0 | 0.0 | 0.00 | 0.03 | 0.00 | 77 | 1017.9 |
| 20260505120836 | 10 | 170 | 0.0 | 0.0 | 0.00 | 0.03 | 0.00 | 76 | 1017.8 |
| 20260505120326 | 10 | 170 | 0.0 | 0.0 | 0.00 | 0.03 | 0.00 | 77 | 1017.9 |
| 20260505115853 | 10 | 171 | 0.0 | 0.0 | 0.00 | 0.15 | 0.00 | 77 | 1017.9 |
| 20260505115322 | 10 | 170 | 0.0 | 0.0 | 0.00 | 0.15 | 0.00 | 77 | 1017.9 |
| 20260505114852 | 10 | 171 | 0.0 | 0.0 | 0.00 | 0.15 | 0.00 | 77 | 1017.9 |
| 20260505114322 | 10 | 171 | 0.0 | 0.0 | 0.00 | 0.15 | 0.00 | 77 | 1017.8 |
| 20260505113831 | 10 | 171 | 0.0 | 1.6 | 0.00 | 0.15 | 0.00 | 78 | 1017.9 |
| 20260505113341 | 10 | 171 | 0.0 | 1.6 | 0.00 | 0.15 | 0.00 | 78 | 1018.0 |
| 20260505112827 | 10 | 139 | 0.0 | 0.0 | 0.00 | 0.15 | 0.00 | 78 | 1017.9 |
| 20260505112317 | 10 | 139 | 0.0 | 0.0 | 0.00 | 0.15 | 0.00 | 77 | 1017.7 |
| 20260505111828 | 10 | 139 | 0.0 | 0.0 | 0.00 | 0.15 | 0.00 | 78 | 1017.7 |
| 20260505111318 | 10 | 139 | 0.0 | 0.0 | 0.00 | 0.15 | 0.00 | 78 | 1017.5 |
| 20260505110826 | 11 | 139 | 0.0 | 0.0 | 0.00 | 0.15 | 0.00 | 77 | 1017.6 |
| 20260505110321 | 11 | 139 | 0.0 | 0.0 | 0.00 | 0.15 | 0.00 | 76 | 1017.6 |
| 20260505101850 | 12 | 159 | 0.0 | 0.0 | 0.00 | 0.15 | 0.00 | 74 | 1017.2 |
| 20260505101319 | 12 | 159 | 0.0 | 0.0 | 0.00 | 0.15 | 0.00 | 74 | 1017.2 |
| 20260505100831 | 12 | 160 | 0.0 | 0.0 | 0.00 | 0.15 | 0.00 | 72 | 1017.2 |
| 20260505100326 | 12 | 160 | 0.0 | 0.0 | 0.00 | 0.15 | 0.00 | 71 | 1017.2 |
| 20260505095853 | 12 | 160 | 0.0 | 1.6 | 0.00 | 0.15 | 0.00 | 71 | 1017.1 |
| 20260505095323 | 13 | 160 | 0.0 | 1.6 | 0.00 | 0.15 | 0.00 | 70 | 1017.2 |
| 20260505094833 | 13 | 141 | 0.0 | 1.6 | 0.00 | 0.15 | 0.00 | 70 | 1017.2 |
| 20260505094323 | 13 | 139 | 0.0 | 1.6 | 0.00 | 0.15 | 0.00 | 68 | 1017.1 |
| 20260505093834 | 14 | 138 | 0.0 | 0.0 | 0.00 | 0.15 | 0.00 | 67 | 1017.1 |
| 20260505093325 | 15 | 138 | 0.0 | 0.0 | 0.00 | 0.15 | 0.00 | 65 | 1017.0 |
| 20260505092853 | 15 | 138 | 0.0 | 0.0 | 0.00 | 0.15 | 0.00 | 61 | 1017.1 |
| 20260505092342 | 16 | 138 | 0.0 | 0.0 | 0.00 | 0.15 | 0.00 | 60 | 1017.1 |
| 20260505091831 | 16 | 138 | 0.0 | 0.0 | 0.00 | 0.15 | 0.00 | 58 | 1017.1 |
| 20260505091341 | 16 | 138 | 0.0 | 0.0 | 0.00 | 0.15 | 0.00 | 57 | 1017.1 |
| 20260505090830 | 16 | 138 | 0.0 | 0.0 | 0.00 | 0.15 | 0.00 | 56 | 1017.1 |
| 20260505090322 | 16 | 139 | 0.0 | 1.6 | 0.00 | 0.15 | 0.00 | 55 | 1017.2 |
| 20260505085829 | 16 | 138 | 0.0 | 1.6 | 0.00 | 0.25 | 0.00 | 53 | 1017.3 |
| 20260505085319 | 16 | 132 | 0.0 | 1.6 | 0.00 | 0.25 | 0.00 | 52 | 1017.3 |
| 20260505084849 | 16 | 124 | 0.0 | 1.6 | 0.00 | 0.25 | 0.00 | 52 | 1017.2 |
| 20260505084339 | 16 | 144 | 0.0 | 4.8 | 0.00 | 0.25 | 0.00 | 51 | 1017.1 |
| 20260505083827 | 16 | 135 | 0.0 | 4.8 | 0.00 | 0.25 | 0.00 | 52 | 1017.1 |
| 20260505083317 | 16 | 130 | 1.6 | 4.8 | 0.00 | 0.25 | 0.00 | 53 | 1017.2 |
| 20260505082823 | 16 | 148 | 0.0 | 4.8 | 0.00 | 0.25 | 0.00 | 55 | 1017.2 |
| 20260505082332 | 16 | 136 | 1.6 | 4.8 | 0.00 | 0.25 | 0.00 | 54 | 1017.2 |
| 20260505081824 | 16 | 162 | 1.6 | 6.4 | 0.00 | 0.25 | 0.00 | 55 | 1017.2 |
| 20260505081335 | 16 | 146 | 4.8 | 6.4 | 0.00 | 0.25 | 0.00 | 54 | 1017.3 |
| 20260505080846 | 16 | 162 | 3.2 | 6.4 | 0.00 | 0.25 | 0.00 | 50 | 1017.3 |
| 20260505080316 | 16 | 143 | 1.6 | 9.7 | 0.00 | 0.25 | 0.00 | 52 | 1017.3 |
| 20260505075824 | 16 | 124 | 1.6 | 9.7 | 0.00 | 0.33 | 0.00 | 52 | 1017.3 |
| 20260505075320 | 16 | 161 | 4.8 | 9.7 | 0.00 | 0.33 | 0.00 | 52 | 1017.3 |
| 20260505074832 | 16 | 174 | 3.2 | 9.7 | 0.00 | 0.33 | 0.00 | 51 | 1017.2 |
| 20260505074321 | 17 | 148 | 4.8 | 9.7 | 0.00 | 0.33 | 0.00 | 49 | 1017.2 |
| 20260505073832 | 17 | 155 | 3.2 | 8.0 | 0.00 | 0.33 | 0.00 | 45 | 1017.1 |
| 20260505073323 | 17 | 151 | 1.6 | 12.9 | 0.00 | 0.33 | 0.00 | 51 | 1017.2 |
| 20260505072831 | 17 | 141 | 6.4 | 14.5 | 0.00 | 0.33 | 0.00 | 46 | 1017.1 |
| 20260505072321 | 17 | 186 | 6.4 | 14.5 | 0.00 | 0.33 | 0.00 | 44 | 1017.0 |
| 20260505071830 | 17 | 143 | 3.2 | 9.7 | 0.00 | 0.33 | 0.00 | 48 | 1017.0 |
| 20260505071320 | 17 | 96 | 1.6 | 11.3 | 0.00 | 0.33 | 0.00 | 48 | 1016.9 |
| 20260505070829 | 18 | 139 | 1.6 | 11.3 | 0.00 | 0.33 | 0.00 | 47 | 1017.0 |
| 20260505070339 | 18 | 148 | 1.6 | 9.7 | 0.00 | 0.33 | 0.00 | 47 | 1016.9 |
| 20260505065829 | 18 | 187 | 6.4 | 11.3 | 0.00 | 0.33 | 0.00 | 43 | 1016.9 |
| 20260505065340 | 17 | 117 | 3.2 | 14.5 | 0.00 | 0.33 | 0.00 | 46 | 1016.8 |
| 20260505064831 | 17 | 102 | 6.4 | 12.9 | 0.00 | 0.33 | 0.00 | 45 | 1016.8 |
| 20260505064322 | 17 | 115 | 3.2 | 14.5 | 0.00 | 0.33 | 0.00 | 42 | 1016.7 |
| 20260505063833 | 17 | 88 | 6.4 | 14.5 | 0.00 | 0.33 | 0.00 | 45 | 1016.8 |
| 20260505063324 | 17 | 86 | 3.2 | 17.7 | 0.00 | 0.33 | 0.00 | 45 | 1016.8 |
| 20260505062829 | 17 | 165 | 3.2 | 17.7 | 0.00 | 0.33 | 0.00 | 41 | 1016.8 |
| 20260505062340 | 17 | 126 | 6.4 | 17.7 | 0.00 | 0.33 | 0.00 | 45 | 1016.7 |
| 20260505061830 | 17 | 92 | 6.4 | 17.7 | 0.00 | 0.33 | 0.00 | 44 | 1016.8 |
| 20260505061319 | 17 | 172 | 4.8 | 19.3 | 0.00 | 0.33 | 0.00 | 45 | 1016.7 |
| 20260505060830 | 17 | 127 | 8.0 | 17.7 | 0.00 | 0.33 | 0.00 | 44 | 1016.8 |
| 20260505060325 | 17 | 174 | 4.8 | 17.7 | 0.00 | 0.33 | 0.00 | 45 | 1016.7 |
| 20260505055853 | 17 | 99 | 3.2 | 12.9 | 0.00 | 0.33 | 0.00 | 45 | 1016.7 |
| 20260505055323 | 17 | 163 | 6.4 | 16.1 | 0.00 | 0.33 | 0.00 | 44 | 1016.7 |
| 20260505054834 | 17 | 150 | 6.4 | 17.7 | 0.00 | 0.33 | 0.00 | 44 | 1016.8 |
| 20260505054325 | 17 | 150 | 6.4 | 17.7 | 0.00 | 0.33 | 0.00 | 44 | 1016.9 |
| 20260505053834 | 17 | 139 | 4.8 | 16.1 | 0.00 | 0.33 | 0.00 | 44 | 1016.9 |
| 20260505053325 | 17 | 159 | 8.0 | 14.5 | 0.00 | 0.33 | 0.00 | 43 | 1016.9 |
| 20260505052832 | 17 | 143 | 8.0 | 16.1 | 0.00 | 0.33 | 0.00 | 42 | 1017.0 |
| 20260505052323 | 17 | 191 | 8.0 | 14.5 | 0.00 | 0.33 | 0.00 | 38 | 1017.1 |
| 20260505051834 | 17 | 125 | 8.0 | 17.7 | 0.00 | 0.33 | 0.00 | 41 | 1017.1 |
| 20260505051329 | 17 | 128 | 9.7 | 17.7 | 0.00 | 0.33 | 0.00 | 40 | 1017.2 |
| 20260505050820 | 17 | 181 | 11.3 | 17.7 | 0.00 | 0.33 | 0.00 | 41 | 1017.3 |
| 20260505050350 | 17 | 181 | 9.7 | 17.7 | 0.00 | 0.33 | 0.00 | 43 | 1017.4 |
| 20260505041356 | 17 | 103 | 6.4 | 19.3 | 0.00 | 0.33 | 0.00 | 53 | 1017.9 |
| 20260505040826 | 18 | 90 | 11.3 | 17.7 | 0.00 | 0.33 | 0.00 | 55 | 1018.0 |
| 20260505040322 | 18 | 189 | 8.0 | 17.7 | 0.00 | 0.33 | 0.00 | 53 | 1018.0 |
| 20260505035829 | 18 | 110 | 8.0 | 17.7 | 0.00 | 0.36 | 0.00 | 49 | 1018.1 |
| 20260505035319 | 18 | 164 | 9.7 | 17.7 | 0.00 | 0.36 | 0.00 | 48 | 1018.1 |
| 20260505034829 | 19 | 97 | 6.4 | 17.7 | 0.00 | 0.36 | 0.00 | 49 | 1018.0 |
| 20260505034340 | 18 | 150 | 3.2 | 14.5 | 0.00 | 0.36 | 0.00 | 44 | 1018.0 |
| 20260505033849 | 18 | 153 | 6.4 | 14.5 | 0.00 | 0.36 | 0.00 | 38 | 1018.0 |
| 20260505033317 | 18 | 198 | 6.4 | 16.1 | 0.00 | 0.36 | 0.00 | 43 | 1018.1 |
| 20260505032823 | 18 | 145 | 9.7 | 19.3 | 0.00 | 0.36 | 0.00 | 38 | 1018.1 |
| 20260505032334 | 18 | 196 | 8.0 | 19.3 | 0.00 | 0.36 | 0.00 | 41 | 1018.3 |
| 20260505031825 | 18 | 181 | 6.4 | 17.7 | 0.00 | 0.36 | 0.00 | 38 | 1018.3 |
| 20260505031355 | 18 | 166 | 9.7 | 17.7 | 0.00 | 0.36 | 0.00 | 35 | 1018.5 |
| 20260505030825 | 18 | 214 | 8.0 | 16.1 | 0.00 | 0.36 | 0.00 | 39 | 1018.5 |
| 20260505030336 | 19 | 193 | 8.0 | 12.9 | 0.00 | 0.36 | 0.00 | 36 | 1018.6 |
| 20260505025822 | 18 | 107 | 4.8 | 11.3 | 0.00 | 0.36 | 0.00 | 35 | 1018.6 |
| 20260505025317 | 18 | 148 | 4.8 | 12.9 | 0.00 | 0.36 | 0.00 | 37 | 1018.5 |
| 20260505024828 | 19 | 150 | 8.0 | 12.9 | 0.00 | 0.36 | 0.00 | 43 | 1018.6 |
| 20260505024317 | 18 | 163 | 4.8 | 11.3 | 0.00 | 0.36 | 0.00 | 40 | 1018.5 |
| 20260505023827 | 18 | 173 | 3.2 | 12.9 | 0.00 | 0.36 | 0.00 | 40 | 1018.5 |
| 20260505023318 | 18 | 164 | 6.4 | 12.9 | 0.00 | 0.36 | 0.00 | 35 | 1018.7 |
| 20260505022821 | 18 | 154 | 4.8 | 12.9 | 0.00 | 0.36 | 0.00 | 35 | 1018.6 |
| 20260505022330 | 18 | 210 | 4.8 | 12.9 | 0.00 | 0.36 | 0.00 | 41 | 1018.6 |
| 20260505021840 | 18 | 131 | 6.4 | 19.3 | 0.00 | 0.36 | 0.00 | 40 | 1018.6 |
| 20260505021328 | 18 | 151 | 6.4 | 16.1 | 0.00 | 0.36 | 0.00 | 35 | 1018.7 |
| 20260505020819 | 18 | 116 | 4.8 | 16.1 | 0.00 | 0.36 | 0.00 | 35 | 1018.6 |
| 20260505020328 | 18 | 79 | 4.8 | 12.9 | 0.00 | 0.36 | 0.00 | 35 | 1018.6 |
| 20260505015834 | 18 | 134 | 6.4 | 12.9 | 0.00 | 0.36 | 0.00 | 34 | 1018.7 |
| 20260505015346 | 18 | 96 | 1.6 | 11.3 | 0.00 | 0.36 | 0.00 | 35 | 1018.7 |
| 20260505014816 | 18 | 94 | 3.2 | 11.3 | 0.00 | 0.36 | 0.00 | 39 | 1018.8 |
| 20260505014331 | 18 | 106 | 4.8 | 11.3 | 0.00 | 0.36 | 0.00 | 32 | 1018.8 |
| 20260505013820 | 18 | 101 | 6.4 | 14.5 | 0.00 | 0.36 | 0.00 | 33 | 1018.9 |
| 20260505013331 | 18 | 89 | 9.7 | 14.5 | 0.00 | 0.36 | 0.00 | 37 | 1018.7 |
| 20260505012817 | 18 | 201 | 3.2 | 12.9 | 0.00 | 0.36 | 0.00 | 40 | 1018.8 |
| 20260505012328 | 18 | 192 | 4.8 | 12.9 | 0.00 | 0.36 | 0.00 | 39 | 1018.7 |
| 20260505011817 | 18 | 95 | 3.2 | 12.9 | 0.00 | 0.36 | 0.00 | 41 | 1018.7 |
| 20260505011348 | 18 | 105 | 6.4 | 11.3 | 0.00 | 0.36 | 0.00 | 41 | 1018.6 |
| 20260505010837 | 18 | 130 | 1.6 | 8.0 | 0.00 | 0.36 | 0.00 | 38 | 1018.5 |
| 20260505010326 | 17 | 211 | 3.2 | 9.7 | 0.00 | 0.36 | 0.00 | 38 | 1018.6 |
| 20260505005834 | 18 | 143 | 3.2 | 9.7 | 0.00 | 0.36 | 0.00 | 39 | 1018.6 |
| 20260505005326 | 18 | 86 | 4.8 | 9.7 | 0.00 | 0.36 | 0.00 | 43 | 1018.5 |
| 20260505004820 | 18 | 32 | 1.6 | 6.4 | 0.00 | 0.36 | 0.00 | 41 | 1018.5 |
| 20260505004332 | 18 | 77 | 3.2 | 6.4 | 0.00 | 0.36 | 0.00 | 44 | 1018.5 |
| 20260505003842 | 17 | 91 | 1.6 | 19.3 | 0.00 | 0.36 | 0.00 | 44 | 1018.5 |
| 20260505003332 | 17 | 16 | 4.8 | 19.3 | 0.00 | 0.36 | 0.00 | 44 | 1018.4 |
| 20260505002818 | 17 | 79 | 1.6 | 8.0 | 0.00 | 0.36 | 0.00 | 47 | 1018.5 |
| 20260505002326 | 17 | 321 | 1.6 | 9.7 | 0.00 | 0.36 | 0.00 | 49 | 1018.5 |
| 20260505001818 | 17 | 62 | 6.4 | 9.7 | 0.00 | 0.36 | 0.00 | 51 | 1018.5 |
| 20260505001329 | 16 | 119 | 3.2 | 4.8 | 0.00 | 0.36 | 0.00 | 54 | 1018.5 |
| 20260505000821 | 16 | 215 | 1.6 | 20.9 | 0.00 | 0.36 | 0.00 | 57 | 1018.4 |
| 20260505000351 | 16 | 158 | 0.0 | 20.9 | 0.00 | 0.36 | 0.00 | 55 | 1018.4 |
| 20260504235819 | 16 | 266 | 1.6 | 4.8 | 0.00 | 0.36 | 0.00 | 59 | 1018.3 |
| 20260504235331 | 15 | 84 | 0.0 | 4.8 | 0.00 | 0.36 | 0.00 | 58 | 1018.3 |
| 20260504234827 | 15 | 148 | 1.6 | 6.4 | 0.00 | 0.36 | 0.00 | 60 | 1018.3 |
| 20260504234337 | 15 | 16 | 1.6 | 6.4 | 0.00 | 0.36 | 0.00 | 62 | 1018.3 |
| 20260504233828 | 15 | 117 | 1.6 | 3.2 | 0.00 | 0.36 | 0.00 | 63 | 1018.3 |
| 20260504233319 | 14 | 89 | 1.6 | 4.8 | 0.00 | 0.36 | 0.00 | 62 | 1018.3 |
| 20260504232826 | 14 | 95 | 0.0 | 3.2 | 0.00 | 0.36 | 0.00 | 64 | 1018.3 |
| 20260504232335 | 14 | 126 | 0.0 | 6.4 | 0.00 | 0.36 | 0.00 | 66 | 1018.3 |
| 20260504231826 | 13 | 75 | 1.6 | 6.4 | 0.00 | 0.36 | 0.00 | 66 | 1018.3 |
| 20260504231357 | 13 | 96 | 0.0 | 3.2 | 0.00 | 0.36 | 0.00 | 68 | 1018.4 |
| 20260504230824 | 13 | 101 | 0.0 | 4.8 | 0.00 | 0.36 | 0.00 | 69 | 1018.4 |
| 20260504230336 | 13 | 76 | 1.6 | 4.8 | 0.00 | 0.36 | 0.00 | 70 | 1018.3 |
| 20260504225820 | 13 | 75 | 1.6 | 4.8 | 0.00 | 0.36 | 0.00 | 70 | 1018.3 |
| 20260504225335 | 13 | 87 | 0.0 | 3.2 | 0.00 | 0.36 | 0.00 | 72 | 1018.1 |
| 20260504224824 | 13 | 203 | 0.0 | 4.8 | 0.00 | 0.36 | 0.00 | 71 | 1018.0 |
| 20260504224335 | 12 | 70 | 1.6 | 4.8 | 0.00 | 0.36 | 0.00 | 73 | 1018.1 |
| 20260504223826 | 12 | 83 | 1.6 | 3.2 | 0.00 | 0.36 | 0.00 | 74 | 1017.9 |
| 20260504223337 | 13 | 73 | 1.6 | 3.2 | 0.00 | 0.36 | 0.00 | 75 | 1017.9 |
| 20260504222828 | 12 | 140 | 0.0 | 1.6 | 0.00 | 0.36 | 0.00 | 76 | 1017.7 |
| 20260504222318 | 12 | 73 | 0.0 | 1.6 | 0.00 | 0.36 | 0.00 | 75 | 1017.8 |
| 20260504221828 | 12 | 101 | 0.0 | 1.6 | 0.00 | 0.36 | 0.00 | 75 | 1017.7 |
| 20260504221317 | 12 | 117 | 0.0 | 1.6 | 0.00 | 0.36 | 0.00 | 77 | 1017.7 |
| 20260504220825 | 11 | 170 | 0.0 | 1.6 | 0.00 | 0.36 | 0.00 | 76 | 1017.5 |
| 20260504220317 | 11 | 172 | 0.0 | 1.6 | 0.00 | 0.36 | 0.00 | 78 | 1017.6 |
| 20260504215845 | 11 | 169 | 0.0 | 1.6 | 0.00 | 0.36 | 0.00 | 78 | 1017.7 |
| 20260504215355 | 11 | 164 | 0.0 | 1.6 | 0.00 | 0.36 | 0.00 | 79 | 1017.6 |
| 20260504214824 | 10 | 196 | 0.0 | 3.2 | 0.00 | 0.36 | 0.00 | 80 | 1017.7 |
| 20260504214320 | 10 | 198 | 0.0 | 3.2 | 0.00 | 0.36 | 0.00 | 81 | 1017.6 |
| 20260504213831 | 10 | 165 | 0.0 | 1.6 | 0.00 | 0.36 | 0.00 | 82 | 1017.6 |
| 20260504213319 | 9 | 165 | 0.0 | 3.2 | 0.00 | 0.36 | 0.00 | 84 | 1017.6 |
| 20260504212825 | 9 | 165 | 0.0 | 3.2 | 0.00 | 0.36 | 0.00 | 86 | 1017.5 |
| 20260504212333 | 8 | 198 | 0.0 | 3.2 | 0.00 | 0.36 | 0.00 | 86 | 1017.5 |
| 20260504211824 | 8 | 173 | 0.0 | 1.6 | 0.00 | 0.36 | 0.00 | 88 | 1017.4 |
| 20260504211334 | 8 | 173 | 0.0 | 1.6 | 0.00 | 0.36 | 0.00 | 89 | 1017.4 |
| 20260504210824 | 8 | 148 | 0.0 | 0.0 | 0.00 | 0.36 | 0.00 | 91 | 1017.3 |
| 20260504210333 | 7 | 148 | 0.0 | 0.0 | 0.00 | 0.36 | 0.00 | 91 | 1017.2 |
| 20260504205818 | 7 | 144 | 0.0 | 0.0 | 0.00 | 0.43 | 0.00 | 91 | 1017.1 |
| 20260504205329 | 7 | 144 | 0.0 | 0.0 | 0.00 | 0.43 | 0.00 | 92 | 1017.1 |
| 20260504204824 | 7 | 144 | 0.0 | 0.0 | 0.00 | 0.43 | 0.00 | 93 | 1017.1 |
| 20260504204334 | 7 | 144 | 0.0 | 0.0 | 0.00 | 0.43 | 0.00 | 93 | 1017.0 |
| 20260504203844 | 7 | 115 | 0.0 | 0.0 | 0.00 | 0.43 | 0.00 | 94 | 1016.9 |
| 20260504203334 | 6 | 115 | 0.0 | 0.0 | 0.00 | 0.43 | 0.00 | 94 | 1016.9 |
| 20260504202839 | 6 | 114 | 0.0 | 0.0 | 0.00 | 0.43 | 0.00 | 94 | 1016.8 |
| 20260504202327 | 6 | 114 | 0.0 | 0.0 | 0.00 | 0.43 | 0.00 | 94 | 1016.8 |
| 20260504201817 | 6 | 133 | 0.0 | 0.0 | 0.00 | 0.43 | 0.00 | 94 | 1016.7 |
| 20260504201328 | 6 | 132 | 0.0 | 1.6 | 0.00 | 0.43 | 0.00 | 94 | 1016.7 |
| 20260504200818 | 6 | 144 | 0.0 | 1.6 | 0.00 | 0.43 | 0.00 | 94 | 1016.5 |
| 20260504200349 | 6 | 143 | 0.0 | 1.6 | 0.00 | 0.43 | 0.00 | 94 | 1016.5 |
| 20260504195816 | 6 | 153 | 0.0 | 1.6 | 0.00 | 0.53 | 0.00 | 94 | 1016.4 |
| 20260504195325 | 6 | 108 | 0.0 | 1.6 | 0.00 | 0.53 | 0.00 | 94 | 1016.3 |
| 20260504194854 | 6 | 136 | 0.0 | 1.6 | 0.00 | 0.53 | 0.00 | 94 | 1016.3 |
| 20260504194344 | 6 | 155 | 0.0 | 3.2 | 0.00 | 0.53 | 0.00 | 94 | 1016.1 |
| 20260504193818 | 6 | 140 | 0.0 | 3.2 | 0.00 | 0.53 | 0.00 | 94 | 1016.3 |
| 20260504193326 | 6 | 131 | 0.0 | 1.6 | 0.00 | 0.53 | 0.00 | 93 | 1016.1 |
| 20260504192829 | 6 | 114 | 0.0 | 1.6 | 0.00 | 0.53 | 0.00 | 93 | 1016.0 |
| 20260504192319 | 6 | 110 | 0.0 | 1.6 | 0.00 | 0.53 | 0.00 | 93 | 1016.0 |
| 20260504191829 | 6 | 174 | 0.0 | 1.6 | 0.00 | 0.53 | 0.00 | 93 | 1015.8 |
| 20260504191319 | 6 | 102 | 0.0 | 1.6 | 0.00 | 0.53 | 0.00 | 93 | 1015.8 |
| 20260504190850 | 6 | 102 | 0.0 | 4.8 | 0.00 | 0.53 | 0.00 | 93 | 1015.8 |
| 20260504190321 | 6 | 177 | 0.0 | 1.6 | 0.00 | 0.53 | 0.00 | 93 | 1015.7 |
| 20260504185828 | 6 | 135 | 0.0 | 1.6 | 0.00 | 0.61 | 0.00 | 94 | 1015.9 |
| 20260504185338 | 6 | 114 | 0.0 | 1.6 | 0.00 | 0.61 | 0.00 | 93 | 1015.8 |
| 20260504184828 | 6 | 115 | 0.0 | 1.6 | 0.00 | 0.61 | 0.00 | 93 | 1015.8 |
| 20260504184318 | 6 | 96 | 0.0 | 3.2 | 0.00 | 0.61 | 0.00 | 93 | 1015.8 |
| 20260504183848 | 7 | 96 | 0.0 | 3.2 | 0.00 | 0.61 | 0.00 | 93 | 1015.7 |
| 20260504183316 | 7 | 143 | 0.0 | 1.6 | 0.00 | 0.61 | 0.00 | 92 | 1015.5 |
| 20260504182823 | 7 | 203 | 0.0 | 3.2 | 0.00 | 0.61 | 0.00 | 93 | 1015.3 |
| 20260504182316 | 7 | 198 | 0.0 | 1.6 | 0.00 | 0.61 | 0.00 | 92 | 1015.2 |
| 20260504181825 | 7 | 207 | 0.0 | 3.2 | 0.00 | 0.61 | 0.00 | 92 | 1015.2 |
| 20260504181315 | 7 | 209 | 0.0 | 3.2 | 0.00 | 0.61 | 0.00 | 92 | 1015.3 |
| 20260504180846 | 7 | 144 | 0.0 | 0.0 | 0.00 | 0.61 | 0.00 | 92 | 1015.4 |
| 20260504180355 | 7 | 186 | 0.0 | 1.6 | 0.00 | 0.61 | 0.00 | 92 | 1015.3 |
| 20260504175819 | 7 | 184 | 0.0 | 1.6 | 0.00 | 0.61 | 0.00 | 92 | 1015.2 |
| 20260504175330 | 7 | 183 | 0.0 | 1.6 | 0.00 | 0.61 | 0.00 | 91 | 1015.0 |
| 20260504174820 | 7 | 184 | 0.0 | 1.6 | 0.00 | 0.61 | 0.00 | 91 | 1015.0 |
| 20260504174330 | 7 | 184 | 0.0 | 0.0 | 0.00 | 0.61 | 0.00 | 91 | 1015.0 |
| 20260504173841 | 7 | 184 | 0.0 | 0.0 | 0.00 | 0.61 | 0.00 | 91 | 1015.0 |
| 20260504173330 | 7 | 184 | 0.0 | 0.0 | 0.00 | 0.61 | 0.00 | 91 | 1015.0 |
| 20260504172837 | 7 | 184 | 0.0 | 3.2 | 0.00 | 0.61 | 0.00 | 91 | 1015.0 |
| 20260504172327 | 7 | 197 | 0.0 | 3.2 | 0.00 | 0.61 | 0.00 | 90 | 1015.0 |
| 20260504171816 | 8 | 195 | 0.0 | 1.6 | 0.00 | 0.61 | 0.00 | 90 | 1015.0 |
| 20260504171324 | 8 | 195 | 0.0 | 1.6 | 0.00 | 0.61 | 0.00 | 90 | 1015.0 |
| 20260504170818 | 8 | 196 | 0.0 | 1.6 | 0.00 | 0.61 | 0.00 | 90 | 1014.9 |
| 20260504160319 | 10 | 329 | 1.6 | 3.2 | 0.00 | 0.66 | 0.00 | 79 | 1014.7 |
| 20260504150823 | 11 | 87 | 11.3 | 25.7 | 0.00 | 0.71 | 0.00 | 75 | 1014.4 |
| 20260504150354 | 11 | 91 | 16.1 | 25.7 | 0.00 | 0.71 | 0.00 | 75 | 1014.3 |
| 20260504141325 | 11 | 89 | 3.2 | 11.3 | 0.00 | 0.76 | 0.71 | 81 | 1014.0 |
| 20260504140834 | 11 | 99 | 4.8 | 12.9 | 0.00 | 0.76 | 0.71 | 81 | 1014.0 |
| 20260504140322 | 11 | 81 | 6.4 | 16.1 | 0.00 | 0.76 | 0.71 | 80 | 1014.0 |
| 20260504130820 | 11 | 91 | 9.7 | 24.1 | 0.03 | 0.84 | 0.71 | 78 | 1013.5 |
| 20260504130331 | 11 | 123 | 8.0 | 32.2 | 0.03 | 0.84 | 0.71 | 78 | 1013.5 |